Home > Weather > Torrevieja > Past weeks

Flag for Spain Weather for the Past 2 Weeks in Torrevieja, Spain

Now
66 °F

Partly sunny.


Feels Like: 66 °F
Forecast: 52 / 69 °F
Wind: 15 mph from Northeast

Location: Murcia / San Javier

Current Time: May 5, 2016 at 4:16:57 PM

Latest Report: May 5, 2016 at 3:00 PM


Visibility: N/A

Pressure: 29.95 "Hg

Humidity: 73%

Dew Point: 57 °F

Location of TorreviejaLocation

Historic Weather in Torrevieja — Graph

°F

Torrevieja Temperature Yesterday

Maximum temperature yesterday: 70 °F (at 2:00 PM)
Minimum temperature yesterday: 55 °F (at 7:00 AM)
Average temperature yesterday: 65 °F

High & Low Weather Summary for the Past Weeks

 TemperatureHumidityPressure
High73 °F (Apr 30, 4:00 PM)94% (Apr 25, 7:00 AM)30.24 "Hg (Apr 25, 7:00 AM)
Low46 °F (May 3, 7:00 AM)31% (Apr 21, 12:00 PM)29.80 "Hg (Apr 27, 6:00 PM)
Average65 °F66%30.03 "Hg
* Reported Apr 20 3:00 PM — May 5 3:00 PM, Torrevieja, Weather by CustomWeather, © 2016

Note: Actual official high and low records may vary slightly from our data, if they occured in-between our weather recording intervals... More about our weather records

Advertising

Torrevieja Weather History for the Previous 24 Hours

Scroll right to see more
 ConditionsComfort  
Time TempWeatherWind HumidityBarometerVisibility
3:00 PM
Thu, May 5
66 °FPartly sunny.15 mph73%29.95 "HgN/A
2:00 PM64 °FPartly sunny.14 mph78%29.95 "HgN/A
1:00 PM63 °FPartly sunny.14 mph88%29.95 "HgN/A
12:00 PM63 °FLight rain. Partly sunny.16 mph88%29.95 "HgN/A
11:00 AM63 °FLight rain. Scattered clouds.17 mph83%29.95 "HgN/A
10:00 AM63 °FLight rain. Passing clouds.15 mph73%29.95 "HgN/A
9:00 AM63 °FSunny.9 mph59%29.95 "Hg10 mi
8:00 AM63 °FSunny.9 mph59%29.95 "Hg10 mi
7:00 AM61 °FClear.8 mph72%29.95 "Hg10 mi
11:00 PM
Wed, May 4
63 °FPassing clouds.9 mph77%30.09 "HgN/A
10:00 PM63 °FClear.13 mph83%30.07 "Hg10 mi
9:00 PM63 °FSunny.10 mph77%30.07 "Hg10 mi
8:00 PM64 °FPassing clouds.10 mph73%30.07 "HgN/A
7:00 PM66 °FPassing clouds.10 mph68%30.07 "HgN/A
6:00 PM68 °FPassing clouds.10 mph60%30.07 "HgN/A
5:00 PM68 °FPassing clouds.12 mph60%30.07 "HgN/A
4:00 PM70 °FPassing clouds.14 mph60%30.09 "HgN/A
Weather by CustomWeather, © 2016

See weather overviewHow to use our weather pages